Showing default

SOLIDARIDAD 1, 22911

Orbit data source: Space-Track

SOLIDARIDAD 1, 22911 is a payload satellite owned by Telmex (MX) in GEO that was launched on Sat, 20 Nov 1993 UTC via an ARIANE 44LP launch vehicle from the French Guiana (FRGUI). Payload-class satellites include a variety of spacecraft equipped with specific instruments for various scientific and technological missions. These include communications satellites like Starlink; space stations such as the ISS; scientific satellites like the Hubble; Earth observation satellites from companies like Planet Labs, Umbra, and HawkEye 360; GPS; miniature CubeSats for education and research; and military/defense satellites.

Loading next visibility...
Identifier
22911, 1993-073A
Orbit
GEO
Country
Flag of MXMX / MEX
Related business
Manufacturer
Hughes
Mission
Non-operational Commercial Communications
Bus & Motor
HS-601, R-4D-11
Mass
2,776 kg wet, 1,291 kg dry
Launch date (UTC)
1993-11-20 (32 years ago)
Launch vehicle
ARIANE 44LP
Launch site
French Guiana (FRGUI)
Object type
Payload
Rocket body
Debris
Shape & HBR
Hex Poly + 2 Pan, 10.5 m
Radar Cross Section
24.763 m², Large (>1 m²)

Expand to show TLE details & history
Last TLE update: 22 hours ago

TLE from 22 hours ago
0 SOLIDARIDAD 1
1 22911U 93073A   25260.34711677 -.00000101  00000-0  00000-0 0  9991
2 22911  14.2987   4.4268 0009379 221.1538 146.7200  1.00272932115139
Epoch: 2025-09-17T08:19Z
TLE epoch observation values (Epoch: 2025-09-17T08:19:50.888Z)
Latitude
1.94745°
Longitude
-109.37931°
Altitude
35,818.693 km
Speed
3.072 km/s
True Right ascension
00h 48m 25s
True Declination
1° 56' 44"
Sunlit
Object was in daylight at epoch
Visualization orbit readout
Latitude
Unknown
Longitude
Unknown
Altitude
Unknown
Speed
Unknown
Apparent Right ascension
Unknown
Apparent Declination
Unknown
Sunlit
N/A
Visualization observer readout
Local Sidereal Time
23:18:47
Azimuth
Unknown
Elevation
Unknown
Doppler factor
Unknown
Orbital elements
Apogee altitude
35,826.795 km
Perigee altitude
35,747.701 km
Semi-major axis
42,165.385 km
Eccentricity
0.00094
Inclination
14.2987°
RAAN
4.4268°
Arg. of periapsis
221.1538°
True anomaly
146.77892°
Mean anomaly
146.72°
Eccentric anomaly
146.74946°
Mean motion
0.25067 °/min
Orbital period
1,436.13 mins
BSTAR
0
Loading maneuver chart data...
Computing Atmospheric mass density...
Loading historical data...
Loading historical data...
Loading historical data...
Loading historical data...
Loading historical data...
Loading historical data...
Loading historical data...

Documentation

Showing up to 5 results
|